Regional Weather Roundup
Issued by NWS Wakefield, VA

Home | Current Version | Previous Version | Graphics & Text | Print | Product List | Glossary On
Versions: 1 2 3 4 5 6 7 8 9 10 11 12 13 14 15 16 17 18 19 20 21 22 23 24 25 26 27 28
000
ASUS41 KAKQ 172315
RWRAKQ

REGIONAL WEATHER ROUNDUP
NATIONAL WEATHER SERVICE WAKEFIELD VA
600 PM EST SUN DEC 17 2017

Note: "fair" indicates few or no clouds below 12,000 feet with no
significant weather and/or obstructions to visibility. * = Denotes
station may not report precipitation (e.g., rain,snow,etc.),
thunder or fog.

VAZ042-051-052>054-056-180000-
NORTHERN VIRGINIA

CITY           SKY/WX    TMP DP  RH WIND       PRES   REMARKS
WASH NATIONAL  CLOUDY    46  32  58 S6        30.22R
DULLES         CLOUDY    43  29  57 S3        30.20R
FORT BELVOIR   CLOUDY    41  32  70 CALM      30.21R
QUANTICO       CLOUDY    43  34  70 CALM      30.23R
FREDERICKSBRG* CLOUDY    45  35  69 CALM      30.21R
STAFFORD*      CLOUDY    44  33  65 CALM      30.26R
WARRENTON      CLOUDY    44  29  56 CALM      30.20S
CULPEPER*      LGT RAIN  43  32  64 CALM      30.21R
MANASSAS*      NOT AVBL
LEESBURG*      CLOUDY    45  34  65 CALM      30.21S
WINCHESTER     CLOUDY    41  30  65 CALM      30.17F
FRONT ROYAL*   CLOUDY    43  30  61 CALM      30.17S
LURAY*         LGT RAIN  43  36  75 S3        30.18S
$$

VAZ048-049-060>072-079>083-180000-
CENTRAL AND SOUTH CENTRAL VIRGINIA

CITY           SKY/WX    TMP DP  RH WIND       PRES   REMARKS
RICHMOND       LGT RAIN  48  30  49 CALM      30.21R
CHESTERFIELD*  NOT AVBL
PETERSBURG*    LGT RAIN  43  32  65 CALM      30.22R
HANOVER        CLOUDY    45  32  60 SW3       30.23R
TAPPAHANNOCK*  LGT RAIN  44  37  75 CALM      30.22R
QUINTON*       CLOUDY    46  31  56 CALM      30.21R
CHARLOTTSVILLE LGT RAIN  46  33  60 CALM      30.18S
GORDONSVILLE*  CLOUDY    44  32  64 CALM      30.19S
ORANGE*        CLOUDY    43  32  65 CALM      30.20S
LOUISA*        LGT RAIN  44  30  57 CALM      30.24R
BUMPASS*       CLOUDY    46  27  48 SW3       30.21R
FARMVILLE*     LGT RAIN  42  42 100 CALM      30.19S
CREWE*         CLOUDY    42  34  73 CALM      30.21R
FORT PICKETT*  NOT AVBL
CHASE CITY*    CLOUDY    40  40 100 CALM      30.21R
CLARKSVILLE*   CLOUDY    43  36  75 CALM      30.21R
SOUTH HILL*    CLOUDY    41  40  97 CALM      30.26R
LAWRENCEVILLE* CLOUDY    41  37  83 CALM      30.20R
EMPORIA*       LGT RAIN  43  34  70 CALM      30.23R
$$

VAZ088>098-180000-
SOUTHEAST VIRGINIA

CITY           SKY/WX    TMP DP  RH WIND       PRES   REMARKS
NORFOLK        CLOUDY    49  32  52 S9        30.20R
VIRGINIA BEACH CLOUDY    48  30  49 SW3       30.21R
NORFOLK NAVAL  CLOUDY    50  30  46 S5        30.21R
WEST POINT*    CLOUDY   N/A N/A N/A CALM      30.23R
SALUDA*        CLOUDY    44  36  75 CALM      30.21R
NEWPORT NEWS   CLOUDY    48  32  53 S7        30.20R
LANGLEY AFB    CLOUDY    45  35  66 CALM      30.19R
FORT EUSTIS    CLOUDY    47  33  59 CALM      30.18R
WILLIAMSBURG*  CLOUDY    46  36  66 CALM      30.21R
HR EXEC AP*    CLOUDY    47  31  53 S6        30.21R
FRANKLIN*      CLOUDY    46  33  60 CALM      30.22R
US460-WAKEFLD  CLOUDY    46  33  60 SW5       30.21R
$$

VAZ020-022-025-037-045-180000-
WEST CENTRAL AND SOUTHWEST VIRGINIA

CITY           SKY/WX    TMP DP  RH WIND       PRES   REMARKS
STAUNTON*      DRIZZLE   44  30  58 S8        30.18F
WAYNESBORO*    CLOUDY    41  31  67 W7        30.18S
HOT SPRINGS VA CLOUDY    36  26  68 W5        30.12F
LYNCHBURG      CLOUDY    41  35  79 CALM      30.20S
DANVILLE       CLOUDY    42  40  92 CALM      30.20R
SOUTH BOSTON*  CLOUDY    40  39  95 CALM      30.21R
MARTINSVILLE   CLOUDY    40  37  89 CALM      30.22R
ROANOKE        CLOUDY    43  34  70 CALM      30.19R
BLACKSBURG     CLOUDY    39  36  89 CALM      30.18S
DUBLIN*        CLOUDY    40  34  80 SE3       30.16F
MARION*        CLOUDY    42  28  58 CALM      30.16S
HILLSVILLE*    CLOUDY    40  22  48 S5        30.13R
RICHLANDS*     CLOUDY    38  29  70 W3        30.14S
WISE*          CLOUDY    37  32  81 SW3       30.12S
ABINGDON*      CLOUDY    43  36  75 CALM      30.14S
$$

MDZ021>025-VAZ099-100-180000-
SOUTHERN MARYLAND AND THE DELMARVA PENINSULA

CITY           SKY/WX    TMP DP  RH WIND       PRES   REMARKS
PATUXENT RIVER CLOUDY    44  40  85 E3        30.22R
BAY BRIDGE APT CLOUDY    43  32  65 CALM      30.23R
LEONARDTOWN    CLOUDY    43  36  75 CALM      30.22R
DOVER          CLOUDY    38  38 100 N3        30.22R
GEORGETOWN     CLOUDY    43  36  76 CALM      30.22R
EASTON         CLEAR     45  34  65 CALM      30.26R
CAMBRIDGE      CLOUDY    45  34  65 CALM      30.20S
SALISBURY      CLOUDY    42  38  85 SE3       30.21R
OCEAN CITY     CLOUDY    43  38  82 CALM      30.22R
WALLOPS ISLAND CLOUDY    44  41  89 CALM      30.21R
ACCOMACK*      CLOUDY    44  39  83 S3        30.22R
$$

NCZ012>017-030>032-180000-
NORTH CENTRAL AND EASTERN NORTH CAROLINA

CITY           SKY/WX    TMP DP  RH WIND       PRES   REMARKS
ROANOKE RAPIDS DRIZZLE   45  36  70 SW3       30.22R
RALEIGH        CLOUDY    48  35  60 SE3       30.20S
ELIZABETH CITY CLOUDY    47  39  74 S5        30.22R
AHOSKIE*       CLOUDY    44  35  72 CALM      30.22R
EDENTON*       CLOUDY    48  38  68 CALM      30.22R
CURRITUCK*     CLOUDY    47  35  63 CALM      30.22R
KILL DEVIL HLS CLOUDY    46  35  64 CALM      30.21S
MANTEO         CLOUDY    47  36  63 S6        30.22F
CAPE HATTERAS  CLOUDY    47  40  76 CALM      30.22F
TARBORO*       NOT AVBL
GOLDSBORO      CLOUDY    50  38  62 CALM      30.18F
WASHINGTON     CLOUDY    49  35  59 SE3       30.21S
GREENVILLE     CLOUDY    50  34  53 CALM      30.22S
NEW BERN       CLOUDY    50  39  66 CALM      30.23R
WILMINGTON     PTCLDY    54  46  74 CALM      30.22S
$$

VAZ048-180000-
ELSEWHERE

CITY           SKY/WX    TMP DP  RH WIND       PRES   REMARKS
HARRISBURG PA  CLOUDY    38  30  73 CALM      30.21R
BALTIMORE      CLOUDY    41  33  73 E3        30.22R
ANNAPOLIS      CLOUDY    42  38  85 CALM      30.23R
ANDREWS AFB    CLOUDY    44  29  55 CALM      30.21R
PHILADELPHIA   CLOUDY    41  29  62 NE5       30.24R
HENDERSON NC   LGT RAIN  42  34  72 S6        30.20S
GREENSBORO     LGT RAIN  45  35  68 W3        30.18S
ROCKY MOUNT    CLOUDY    47  37  68 CALM      30.22R
$$

VAZ100-180000-
MARINE

STATION/POSITION TIME  TEMP    WIND        PRES    WAVE   SWELL
                       AIR SEA DIR/SP/G            HT/PER HT/PER
                 (UTC) (F)     (DEG/KT/KT) (MB)    (FT/S) (FT/S)
BRANDYWINE LGT   2248          140/  5/  5 1023.7R
CAPE MAY NJ      2248      42  100/  3/  3 1022.8R
LEWES DE         2248      42   40/  3/  4 1023.1R
15NM E FENWICK I 2250   48 51   40/  2/  4 1023.6R   1/ 4   2/ 4
OCEAN-CITY-INLET 2248      45  330/  1/  1 1023.6R
WACHAPREAGUE VA  2248      41  340/  2/  3 1022.9R
THOMAS POINT MD  2300   44 43   CALM  /  1   N/A
GOOSES REEF MD   2300   44 45   80/  2/  2 1024.0    0
COVE POINT MD    2248          150/  4/  5 1023.8R
SOLOMONS ISLAND  2248      45   90/  4/  5 1023.0R
BISHOPS HEAD MD  2248      37   50/  1/  2 1023.1R
PINEY POINT MD   2248          150/  5/  5   N/A
POTOMAC MD       2300   45 45  190/  4/  6 1022.6    1
CAMBRIDGE MD     2248      39              1023.7R
LEWISETTA VA     2248      39   CALM  /  1 1022.7R
RAPPAHANNOCK LGT 2248          130/  3/  3 1023.5R
STINGRAY PT      2250   45     190/  4/  6 1023.3R
YORK RVR RNG VA  2248          180/  5/  6 1023.3R
YORKTOWN VA      2248      45   70/  2/  2 1022.4R
JAMESTOWN VA     2300      43  220/  4/  4   N/A     0
DOMINION TERM VA 2248          210/  7/  8 1023.0R
KIPTOPEKE VA     2248      45  190/  9/ 10   N/A
CAPE HENRY VA    2248          180/  5/  8   N/A
WILLOUBY STN VA  2248          210/  9/ 10 1022.5R
S CRANEY ISL VA  2248          210/  6/  8 1022.7R
CAPE HENRY BUOY  2300      51                N/A     1/11
1ST LANDING BUOY 2300   48 46  230/  6/  8 1023.2    1
CAPE CHARLES BUO 2251      49                N/A     2/ 3
64NM E OF VA BCH 2250   53 59  210/ 10/ 12 1023.1F   2/ 4   2/ 8
DUCK PIER NC     2248      52  150/  5/  5 1022.3F
44100 DUCK FRF   2245      54                N/A     1/10
44056 DUCK FRF   2300      54                N/A     1/10
OREGON INLET NC  2248          180/  5/  6 1023.2F
HATTERAS NC      2248      53   60/  1/  1 1023.1F
DIAMOND SHLS NC  2250   59 72  300/  6/ 10 1023.7F   2/11   2/11
CAPE LOOKOUT NC  2300          100/  2/  2 1023.3F
$$




USA.gov is the U.S. government's official web portal to all federal, state and local government web resources and services.